Temp
-8 -8 -8 -8 -9 -8 -8 -8 -9 -9 -9 -10 -10 -10 -10 -10 -10 -11 -11 -10 -10 -10 -10 -10 -9 -9 -9 -9 -9 -9 -8 -7 -8 -8 -8 -8 -8 -9 -7 -8 -9 -9 -8 -8 -8
-9 -9 -9 -9 -9 -9 -9 -9 -9 -9 -9 -10 -10 -10 -10 -10 -10 -11 -11 -11 -10 -10 -10 -9 -9 -9 -9 -9 -9 -8 -8 -8 -9 -9 -8 -8 -8 -9 -9 -9 -8 -8 -8 -8 -9
-8 -9 -9 -9 -8 -9 -9 -9 -9 -9 -9 -9 -10 -10 -10 -10 -10 -10 -11 -11 -10 -10 -10 -10 -10 -9 -9 -10 -9 -9 -8 -8 -9 -9 -8 -8 -8 -9 -9 -9 -9 -8 -8 -9 -8
-8 -8 -9 -9 -9 -9 -9 -9 -9 -9 -10 -10 -10 -10 -10 -10 -10 -10 -11 -11 -11 -11 -11 -10 -10 -10 -10 -10 -10 -9 -9 -8 -9 -8 -8 -9 -9 -9 -9 -10 -9 -8 -8 -9 -9
-8 -8 -8 -9 -9 -9 -9 -9 -9 -9 -10 -10 -10 -10 -10 -10 -10 -10 -11 -11 -11 -11 -11 -10 -10 -10 -10 -10 -10 -10 -10 -10 -9 -9 -9 -10 -9 -8 -9 -10 -9 -9 -8 -9 -9
-8 -8 -9 -9 -9 -9 -9 -9 -9 -9 -10 -10 -10 -10 -10 -11 -10 -11 -11 -11 -11 -11 -11 -11 -10 -10 -10 -11 -10 -11 -11 -11 -11 -10 -10 -9 -9 -10 -9 -9 -9 -9 -9 -9 -9
-9 -9 -9 -9 -9 -9 -9 -9 -9 -10 -9 -10 -10 -10 -10 -11 -11 -11 -11 -11 -11 -11 -11 -11 -11 -11 -11 -12 -12 -11 -11 -12 -12 -12 -10 -11 -10 -9 -9 -9 -9 -10 -9 -9 -9
-9 -9 -9 -9 -9 -9 -9 -9 -10 -9 -9 -9 -10 -10 -11 -10 -11 -11 -11 -12 -11 -12 -11 -11 -12 -12 -12 -12 -13 -12 -12 -12 -13 -14 -13 -13 -8 -10 -10 -10 -10 -9 -10 -9 -9
-9 -9 -9 -10 -10 -10 -10 -10 -10 -10 -10 -10 -10 -10 -11 -11 -11 -11 -11 -12 -12 -12 -12 -12 -13 -12 -13 -13 -13 -13 -14 -15 -16 -15 -15 -13 -10 -11 -14 -13 -10 -9 -11 -10 -10
-9 -10 -10 -10 -10 -10 -10 -10 -10 -10 -10 -10 -10 -11 -11 -11 -11 -12 -12 -12 -12 -12 -12 -13 -13 -13 -14 -14 -14 -16 -15 -16 -17 -17 -17 -15 -13 -14 -13 -13 -11 -11 -11 -9 -10
-10 -10 -10 -10 -11 -11 -11 -11 -11 -11 -11 -11 -11 -11 -11 -12 -12 -12 -12 -12 -13 -13 -13 -13 -13 -14 -15 -15 -15 -18 -17 -16 -17 -17 -18 -16 -16 -15 -14 -13 -12 -11 -12 -11 -9
-10 -11 -11 -11 -11 -11 -11 -11 -11 -11 -10 -11 -11 -12 -12 -12 -12 -12 -12 -13 -13 -14 -14 -13 -13 -15 -15 -15 -15 -16 -17 -16 -17 -18 -18 -17 -16 -16 -15 -14 -14 -13 -13 -11 -9
-10 -11 -11 -12 -12 -12 -12 -11 -12 -12 -11 -11 -12 -12 -14 -13 -13 -13 -13 -13 -14 -15 -14 -14 -15 -15 -15 -15 -15 -16 -16 -18 -17 -17 -17 -18 -17 -16 -15 -14 -14 -14 -13 -11 -11
-11 -11 -12 -12 -12 -12 -12 -12 -12 -12 -12 -12 -13 -13 -14 -14 -13 -14 -14 -14 -14 -15 -15 -15 -15 -15 -15 -15 -15 -15 -16 -17 -18 -18 -17 -17 -16 -15 -15 -14 -14 -13 -13 -12 -11
-12 -12 -12 -12 -13 -13 -12 -13 -13 -14 -14 -14 -15 -15 -15 -15 -15 -14 -15 -15 -15 -15 -15 -15 -15 -15 -15 -15 -15 -15 -17 -17 -18 -18 -17 -16 -16 -15 -15 -15 -14 -13 -12 -11 -10
-13 -13 -12 -12 -13 -13 -13 -13 -15 -16 -16 -16 -16 -16 -16 -15 -15 -15 -15 -15 -16 -16 -16 -16 -16 -16 -16 -16 -16 -16 -17 -17 -18 -18 -17 -16 -16 -15 -15 -15 -16 -14 -13 -13 -13
-13 -13 -13 -13 -13 -13 -14 -15 -16 -18 -17 -17 -18 -17 -17 -16 -16 -16 -16 -15 -15 -15 -15 -16 -16 -16 -16 -16 -16 -16 -17 -17 -18 -17 -16 -16 -16 -16 -15 -16 -15 -15 -14 -14 -13
-14 -14 -13 -13 -14 -14 -16 -17 -17 -17 -18 -20 -19 -18 -18 -18 -17 -16 -16 -16 -16 -16 -17 -16 -16 -16 -15 -16 -16 -16 -18 -17 -16 -16 -16 -16 -16 -16 -16 -16 -16 -15 -15 -15 -15
-14 -14 -15 -15 -15 -15 -16 -16 -17 -19 -20 -21 -19 -19 -17 -16 -16 -16 -16 -16 -16 -15 -16 -17 -17 -17 -16 -16 -17 -17 -17 -17 -16 -16 -16 -16 -17 -16 -16 -16 -15 -15 -15 -15 -15
-15 -16 -16 -16 -16 -17 -17 -17 -18 -20 -21 -20 -19 -18 -18 -18 -16 -16 -16 -16 -16 -16 -16 -17 -19 -18 -17 -17 -17 -17 -17 -18 -17 -16 -16 -16 -16 -16 -16 -16 -16 -15 -15 -15 -15
-16 -17 -17 -17 -17 -18 -18 -19 -19 -20 -20 -20 -19 -18 -18 -17 -17 -16 -16 -16 -16 -16 -16 -17 -18 -17 -17 -17 -17 -17 -17 -18 -16 -16 -16 -16 -15 -16 -16 -16 -16 -16 -15 -15 -15
-18 -18 -18 -18 -18 -19 -19 -19 -19 -19 -19 -19 -18 -18 -17 -17 -16 -16 -16 -17 -16 -16 -16 -16 -17 -17 -17 -17 -17 -18 -18 -17 -18 -17 -17 -17 -16 -16 -16 -16 -16 -15 -15 -15 -14
-19 -20 -20 -19 -20 -20 -20 -20 -19 -19 -19 -19 -18 -18 -18 -17 -17 -16 -16 -16 -17 -17 -16 -16 -16 -16 -17 -17 -17 -17 -17 -18 -17 -17 -15 -17 -17 -17 -16 -16 -16 -15 -15 -15 -15
-21 -21 -21 -21 -21 -21 -21 -20 -20 -20 -19 -19 -19 -18 -18 -18 -17 -16 -16 -17 -17 -17 -17 -17 -16 -16 -17 -17 -17 -16 -17 -17 -18 -17 -17 -16 -16 -15 -16 -17 -17 -16 -16 -15 -15
-23 -23 -23 -23 -22 -22 -21 -21 -20 -20 -19 -19 -19 -18 -18 -18 -17 -17 -16 -16 -16 -18 -17 -16 -16 -16 -16 -16 -17 -17 -17 -17 -17 -17 -17 -17 -17 -17 -16 -16 -16 -16 -16 -15 -15
-25 -25 -25 -24 -23 -23 -22 -21 -20 -20 -19 -19 -19 -19 -18 -18 -18 -16 -16 -16 -17 -18 -17 -17 -17 -17 -17 -17 -17 -17 -17 -16 -16 -16 -16 -16 -17 -16 -16 -16 -15 -15 -15 -15 -14
-27 -26 -25 -25 -24 -23 -23 -22 -21 -20 -19 -19 -19 -19 -18 -18 -18 -17 -17 -17 -17 -17 -17 -17 -17 -17 -17 -17 -17 -17 -17 -17 -17 -16 -16 -16 -16 -16 -16 -16 -16 -15 -15 -15 -15
Height
5823 5819 5816 5812 5809 5806 5803 5799 5796 5793 5790 5787 5785 5783 5781 5779 5778 5775 5774 5779 5782 5783 5784 5787 5792 5795 5799 5803 5807 5811 5813 5819 5825 5830 5835 5836 5841 5849 5851 5854 5861 5865 5866 5869 5875
5819 5816 5812 5808 5805 5802 5799 5795 5792 5788 5785 5782 5779 5777 5775 5772 5771 5769 5769 5770 5773 5776 5778 5780 5783 5786 5790 5793 5797 5799 5803 5812 5815 5818 5824 5827 5832 5838 5843 5847 5853 5856 5858 5863 5867
5815 5812 5808 5805 5801 5798 5794 5790 5787 5783 5780 5776 5773 5770 5768 5767 5764 5763 5762 5763 5766 5768 5770 5772 5775 5777 5779 5782 5786 5788 5794 5800 5802 5805 5811 5818 5819 5829 5832 5833 5837 5846 5850 5854 5857
5810 5807 5804 5800 5797 5793 5790 5786 5781 5777 5774 5771 5768 5765 5761 5760 5758 5757 5756 5756 5758 5760 5762 5765 5767 5769 5771 5773 5773 5776 5782 5785 5790 5793 5801 5810 5810 5817 5822 5827 5831 5841 5845 5845 5847
5806 5802 5799 5795 5792 5787 5782 5779 5775 5771 5767 5764 5761 5759 5755 5753 5750 5752 5749 5750 5751 5754 5756 5757 5760 5761 5764 5765 5763 5763 5769 5770 5774 5780 5788 5796 5798 5807 5812 5818 5819 5828 5838 5840 5842
5800 5796 5792 5789 5784 5780 5776 5772 5768 5764 5760 5757 5755 5752 5749 5747 5743 5744 5743 5743 5745 5747 5749 5750 5751 5754 5756 5757 5756 5754 5754 5755 5760 5765 5773 5782 5788 5790 5804 5807 5807 5818 5825 5830 5832
5793 5789 5786 5781 5778 5773 5769 5766 5761 5757 5754 5750 5746 5744 5743 5739 5738 5734 5737 5736 5737 5739 5741 5742 5744 5747 5747 5746 5745 5744 5744 5744 5746 5750 5757 5767 5771 5775 5792 5798 5798 5805 5815 5816 5820
5787 5781 5777 5773 5768 5764 5761 5757 5753 5750 5746 5743 5739 5736 5734 5731 5731 5727 5728 5729 5729 5730 5732 5734 5736 5738 5737 5737 5737 5735 5733 5733 5735 5737 5743 5749 5763 5770 5773 5781 5786 5790 5802 5808 5812
5778 5774 5769 5764 5759 5756 5751 5748 5743 5740 5737 5733 5731 5728 5725 5724 5722 5720 5720 5721 5722 5722 5723 5725 5727 5728 5728 5729 5729 5725 5725 5724 5726 5729 5731 5737 5748 5757 5759 5765 5778 5781 5793 5798 5806
5768 5763 5758 5753 5748 5744 5740 5736 5732 5730 5726 5722 5721 5718 5716 5714 5712 5712 5711 5713 5714 5714 5716 5718 5719 5719 5721 5721 5720 5716 5718 5720 5719 5723 5722 5726 5735 5744 5745 5745 5763 5770 5784 5789 5795
5756 5750 5745 5740 5735 5731 5728 5722 5721 5718 5714 5712 5710 5706 5704 5704 5703 5702 5702 5703 5706 5706 5708 5710 5711 5712 5714 5714 5714 5711 5711 5715 5716 5717 5716 5718 5724 5733 5738 5744 5755 5762 5771 5779 5786
5742 5736 5731 5726 5721 5717 5713 5709 5706 5703 5701 5699 5697 5694 5691 5691 5691 5693 5694 5695 5696 5698 5698 5702 5706 5705 5706 5708 5707 5706 5705 5710 5713 5714 5713 5713 5715 5723 5733 5735 5747 5754 5759 5768 5776
5729 5723 5717 5712 5708 5703 5697 5695 5690 5687 5684 5686 5682 5681 5680 5677 5680 5681 5683 5684 5685 5687 5692 5695 5698 5697 5698 5701 5701 5704 5703 5706 5711 5710 5710 5712 5714 5719 5725 5732 5740 5746 5750 5757 5764
5714 5708 5703 5698 5693 5686 5681 5677 5673 5667 5663 5665 5665 5666 5668 5666 5668 5671 5673 5675 5676 5681 5684 5686 5689 5690 5692 5695 5698 5699 5702 5701 5705 5709 5714 5713 5720 5719 5722 5728 5734 5739 5744 5750 5756
5701 5695 5689 5682 5677 5670 5667 5659 5654 5649 5645 5645 5649 5654 5655 5657 5662 5660 5665 5664 5668 5672 5676 5683 5682 5684 5687 5691 5694 5698 5698 5699 5700 5706 5708 5710 5717 5717 5718 5721 5726 5731 5737 5741 5746
5683 5677 5672 5667 5660 5654 5646 5640 5636 5633 5622 5637 5640 5643 5646 5648 5649 5651 5655 5658 5661 5662 5668 5671 5675 5677 5683 5686 5690 5693 5694 5697 5698 5703 5706 5710 5716 5715 5715 5719 5720 5725 5731 5736 5741
5667 5660 5655 5650 5645 5636 5628 5623 5620 5613 5621 5624 5624 5629 5634 5637 5640 5642 5647 5650 5653 5656 5660 5665 5668 5672 5676 5681 5685 5688 5691 5696 5700 5701 5704 5710 5711 5714 5708 5715 5718 5721 5725 5730 5737
5650 5643 5637 5630 5626 5619 5611 5607 5603 5610 5609 5615 5616 5617 5621 5629 5632 5635 5639 5642 5646 5650 5654 5657 5661 5666 5671 5677 5682 5685 5688 5696 5699 5701 5703 5702 5706 5712 5707 5711 5715 5719 5723 5727 5731
5636 5627 5620 5614 5609 5603 5598 5594 5597 5599 5600 5603 5603 5607 5610 5616 5623 5628 5632 5637 5640 5644 5647 5650 5655 5659 5663 5670 5676 5682 5681 5690 5690 5693 5696 5700 5700 5701 5704 5707 5711 5716 5720 5724 5727
5620 5612 5604 5598 5594 5589 5585 5587 5585 5586 5588 5591 5595 5598 5600 5604 5609 5617 5624 5630 5633 5637 5641 5645 5650 5651 5658 5662 5666 5672 5679 5682 5685 5691 5695 5694 5697 5702 5699 5703 5706 5709 5713 5717 5720
5601 5595 5593 5586 5582 5579 5576 5577 5576 5577 5580 5582 5586 5589 5591 5596 5603 5610 5619 5623 5627 5632 5636 5641 5646 5649 5651 5655 5661 5665 5669 5674 5680 5684 5689 5693 5693 5693 5693 5697 5700 5703 5706 5710 5712
5583 5578 5578 5574 5571 5569 5569 5570 5570 5571 5572 5574 5577 5581 5583 5585 5594 5603 5610 5616 5619 5626 5631 5636 5640 5644 5649 5648 5652 5657 5661 5669 5671 5677 5680 5686 5687 5686 5688 5691 5693 5696 5699 5701 5703
5568 5562 5559 5559 5560 5559 5561 5561 5562 5564 5566 5568 5571 5575 5576 5578 5583 5595 5602 5609 5614 5619 5626 5632 5636 5639 5643 5646 5648 5650 5653 5658 5664 5667 5673 5678 5681 5679 5681 5684 5686 5687 5689 5691 5693
5549 5547 5543 5545 5547 5547 5550 5552 5554 5555 5560 5561 5565 5569 5571 5574 5580 5588 5593 5602 5607 5613 5620 5626 5630 5634 5639 5642 5646 5648 5650 5652 5656 5659 5663 5669 5667 5671 5671 5674 5675 5677 5679 5681 5683
5532 5531 5531 5533 5535 5538 5542 5545 5548 5551 5554 5557 5560 5564 5567 5571 5575 5580 5584 5593 5599 5607 5613 5620 5625 5629 5633 5637 5641 5644 5647 5650 5652 5655 5659 5660 5663 5663 5664 5665 5667 5670 5672 5673 5674
5517 5519 5520 5523 5527 5532 5534 5539 5542 5545 5548 5552 5554 5558 5562 5567 5572 5578 5581 5588 5595 5602 5607 5614 5620 5625 5628 5632 5636 5639 5642 5645 5648 5651 5654 5655 5658 5657 5659 5660 5661 5662 5664 5666 5669
5507 5511 5514 5518 5522 5526 5530 5533 5535 5541 5545 5546 5549 5553 5558 5563 5568 5574 5580 5587 5592 5597 5604 5610 5615 5620 5624 5628 5632 5635 5638 5641 5643 5646 5648 5651 5650 5653 5654 5655 5656 5657 5657 5657 5658
Wind_Speed
24 23 22 25 24 25 25 26 25 26 25 23 24 24 25 27 26 26 32 39 34 31 38 43 44 45 47 47 47 47 50 49 46 48 49 53 56 49 57 55 48 45 51 51 46
25 24 27 29 30 29 30 30 29 26 25 24 23 25 25 26 26 25 27 31 35 34 35 36 40 43 46 48 50 52 53 49 50 52 51 53 54 55 54 58 53 49 52 50 49
27 26 27 28 29 30 31 34 34 31 28 26 24 24 24 26 25 25 25 28 31 33 36 37 38 41 45 49 51 54 55 54 55 57 56 54 57 54 56 59 61 54 53 52 54
27 27 28 27 28 29 32 35 35 34 31 28 25 24 24 25 28 24 24 27 28 27 27 29 30 31 34 41 51 58 59 61 61 62 57 54 60 57 58 59 63 58 57 53 56
30 28 28 29 30 31 32 34 32 33 34 30 26 25 24 24 30 18 26 25 27 26 26 27 31 32 30 29 33 49 61 67 68 66 62 58 62 62 62 58 61 60 49 57 58
31 31 33 35 32 34 34 34 35 33 32 32 30 25 25 25 27 25 27 28 30 30 26 27 29 29 30 27 30 32 43 64 71 72 69 67 65 66 64 63 65 62 55 63 64
33 33 35 34 33 36 36 36 36 35 35 34 32 28 27 29 26 29 26 28 29 31 29 27 26 28 27 26 25 30 37 45 64 74 76 70 73 73 64 65 68 64 68 61 68
34 33 34 36 38 38 39 37 37 35 33 36 36 34 26 29 28 31 25 27 28 31 30 27 25 26 21 23 23 24 29 39 52 64 75 76 76 73 72 70 69 71 50 64 65
36 39 44 43 41 42 42 41 39 35 33 33 36 36 31 31 29 30 29 26 29 30 29 27 24 22 20 20 24 15 18 23 38 53 60 76 79 75 65 67 69 73 59 57 61
44 48 50 53 54 49 49 47 45 40 35 35 35 37 35 34 31 29 29 30 29 30 30 27 24 20 17 18 17 11 16 24 28 35 49 59 76 74 74 75 73 72 62 52 61
50 52 53 52 52 53 51 51 46 43 39 37 36 39 39 33 33 30 29 31 29 30 30 27 26 16 16 19 20 17 17 21 27 27 31 39 48 62 71 72 66 66 61 60 51
52 51 51 50 51 51 51 50 44 43 42 41 41 42 41 37 35 33 29 30 30 29 32 28 21 19 23 24 20 18 15 15 21 21 28 28 34 41 51 65 58 59 61 66 58
55 54 51 53 55 54 52 49 46 47 48 45 46 45 39 40 34 35 31 28 27 31 28 27 23 25 26 24 18 18 16 14 14 20 16 19 25 28 38 44 47 40 56 63 70
59 58 56 56 56 53 52 50 49 52 54 52 50 47 39 41 37 31 31 30 28 28 29 29 26 28 27 23 20 20 18 18 18 14 12 17 15 25 30 29 33 35 36 48 55
65 62 60 59 56 54 54 52 52 55 55 54 50 40 35 37 33 34 29 32 31 32 32 27 27 26 27 19 21 16 23 23 22 19 19 10 21 17 31 31 29 30 28 36 43
64 62 59 60 57 55 51 52 54 52 59 46 41 37 30 25 29 32 32 28 30 33 32 34 29 29 26 23 21 19 24 25 23 21 24 20 18 17 22 22 23 31 30 24 21
63 63 61 61 56 51 51 50 48 46 41 35 35 34 30 25 27 30 30 29 28 30 32 34 34 32 31 25 24 23 24 20 20 23 22 21 19 19 26 23 20 16 16 15 21
61 61 58 57 50 48 49 47 47 36 32 24 26 31 32 27 30 30 30 29 28 31 31 32 33 35 31 28 24 25 23 17 17 19 20 27 27 24 28 24 24 22 22 21 23
61 57 53 49 47 48 47 45 31 22 21 23 27 32 37 35 38 34 32 24 23 29 34 29 33 33 32 28 27 20 27 23 22 27 19 21 27 27 30 29 25 27 29 27 28
58 50 47 45 44 43 39 30 24 18 23 23 25 30 38 36 33 33 31 25 24 24 26 25 25 31 28 28 29 30 19 26 28 21 22 17 17 19 26 27 27 29 31 33 36
56 49 44 41 42 39 31 22 17 19 22 25 24 32 35 36 29 37 33 27 22 19 21 24 23 20 28 32 25 31 31 26 23 27 23 22 14 27 30 25 28 28 28 29 31
55 47 41 38 41 31 15 15 14 16 19 22 26 32 35 23 28 37 37 29 26 23 19 19 22 26 18 24 30 35 28 26 27 28 28 25 25 24 29 24 27 28 28 29 30
53 41 38 37 31 21 20 20 22 26 21 22 24 33 31 37 14 38 37 31 28 26 25 20 22 22 23 19 21 25 32 37 28 28 24 23 29 30 31 31 31 31 30 32 33
47 37 33 29 26 27 21 20 22 20 13 22 26 26 30 30 23 36 43 37 34 31 29 26 24 27 24 19 14 15 17 24 29 28 27 29 29 29 24 28 27 30 31 32 32
41 32 25 23 27 25 22 20 24 23 23 22 28 26 28 21 19 14 41 43 40 31 30 27 27 25 29 23 25 19 19 21 22 22 20 21 21 24 23 22 22 21 22 23 25
27 22 20 22 23 20 20 17 19 20 20 19 19 24 31 21 18 18 24 28 28 34 33 29 22 18 18 17 16 17 18 19 19 18 19 20 19 24 20 22 21 23 24 26 26
20 16 16 16 18 18 17 15 22 20 10 23 19 25 21 21 20 24 29 30 29 26 25 26 21 18 19 20 21 20 19 20 20 20 21 20 24 20 23 24 25 26 28 30 31
Wind_Direction
341 341 342 338 340 338 336 332 327 317 311 309 300 290 287 287 286 266 255 247 246 247 243 243 240 240 238 237 238 238 238 240 240 237 234 235 233 234 224 226 226 231 228 234 233
333 334 335 336 333 330 331 332 330 322 315 308 303 295 289 288 287 268 257 250 244 241 243 244 243 242 242 241 239 238 240 240 238 237 236 235 233 236 232 229 227 225 231 229 233
335 332 328 332 335 332 329 328 328 326 321 311 304 300 291 287 284 275 256 250 243 240 240 242 244 243 243 241 241 242 241 237 236 237 235 233 236 232 234 233 228 226 224 226 229
326 326 323 323 324 324 325 326 324 322 323 314 305 299 292 285 286 275 261 252 246 235 235 237 240 241 244 246 242 239 241 240 237 238 236 233 236 233 233 235 230 229 227 221 226
322 319 321 323 324 322 320 320 323 320 319 315 306 297 292 288 282 285 261 251 245 248 251 255 254 257 260 263 255 244 238 237 237 236 235 232 235 232 233 234 235 227 231 227 232
319 315 316 317 317 319 319 320 319 317 315 315 310 301 288 286 286 279 263 255 247 250 252 255 258 259 262 264 271 260 245 239 235 235 231 230 232 235 230 232 238 231 226 228 231
310 308 312 313 315 316 319 318 315 317 314 313 310 305 290 279 284 278 272 255 250 246 250 252 256 260 263 270 276 267 252 248 242 234 232 228 227 234 228 230 235 236 230 220 222
309 309 311 313 311 310 311 313 309 308 309 311 308 307 287 283 279 278 272 256 250 245 245 249 253 262 270 276 270 268 261 249 247 241 235 229 227 228 231 227 229 235 224 232 220
303 303 306 309 308 311 311 311 308 303 297 299 298 301 290 284 276 275 268 257 252 249 249 248 249 256 268 269 264 277 289 269 257 248 243 234 226 224 231 232 227 232 224 230 238
301 301 301 303 304 307 308 308 307 299 293 292 293 290 288 282 271 269 268 262 255 249 247 245 244 246 252 254 265 271 289 281 268 252 251 243 234 228 227 233 222 228 222 227 223
306 304 301 300 301 303 304 302 302 299 290 287 284 282 288 281 267 263 264 262 255 250 244 237 236 236 234 239 244 219 245 278 264 254 241 249 242 237 235 235 234 225 227 226 231
312 310 304 302 301 303 303 302 300 294 295 280 277 276 275 273 265 262 260 259 255 245 239 233 232 231 229 237 236 239 219 250 266 241 242 230 226 230 235 242 240 237 231 223 226
313 309 306 304 303 302 301 299 291 289 288 278 270 269 267 260 257 255 253 251 240 232 233 230 227 232 231 237 237 251 226 223 229 250 245 231 234 214 225 237 241 243 241 228 230
313 310 308 307 304 301 299 297 288 281 279 273 260 261 256 259 252 254 246 240 231 230 227 225 224 230 234 238 237 238 236 208 210 218 232 241 223 224 219 218 227 239 241 240 234
313 312 311 310 305 302 304 296 285 276 274 271 269 263 260 257 254 247 248 240 236 236 229 226 224 226 234 233 239 230 229 213 206 217 220 236 203 232 225 208 210 221 227 236 227
311 310 310 309 307 306 299 289 281 278 272 273 273 266 256 247 245 242 235 236 233 230 227 220 215 219 222 221 226 216 221 223 217 217 227 213 208 228 232 213 219 216 207 211 209
311 310 310 311 308 302 291 284 281 273 285 282 275 255 235 236 241 238 236 243 239 235 227 222 219 217 218 218 217 214 217 220 224 218 219 224 224 213 209 228 225 222 217 209 223
313 313 311 309 303 293 287 283 278 289 284 278 266 249 227 225 228 231 236 236 229 236 227 227 223 222 225 218 220 216 213 203 228 225 228 229 217 229 240 231 224 223 222 221 225
315 311 307 306 296 289 288 287 295 282 263 259 250 236 227 214 216 223 234 235 233 234 234 228 219 221 222 221 214 221 214 207 226 213 202 233 222 218 234 232 232 224 227 230 232
312 309 305 296 291 289 289 295 285 252 243 249 238 237 230 235 213 207 214 216 219 228 226 224 214 225 220 221 221 202 230 220 215 217 216 220 232 229 243 237 240 241 238 237 237
311 307 303 292 288 287 287 284 254 236 238 240 231 231 230 227 233 199 213 210 204 215 215 211 209 235 229 225 222 219 217 215 216 216 223 228 220 237 239 240 242 242 239 236 234
309 303 299 289 283 281 274 265 242 255 245 241 231 221 236 220 211 199 199 202 193 204 205 204 204 205 216 234 228 219 211 222 226 222 226 214 239 241 250 243 241 241 241 239 238
309 305 293 282 278 262 245 237 230 226 247 269 240 223 233 237 219 192 190 201 197 201 207 199 201 202 217 215 225 232 235 218 220 215 228 235 233 245 258 259 250 249 249 248 247
312 304 282 274 259 244 234 237 236 237 235 251 232 230 241 244 244 192 199 209 198 197 204 211 230 211 210 221 218 224 230 235 235 238 238 226 242 245 241 255 250 248 250 253 256
304 293 276 255 241 237 238 237 224 223 223 237 238 230 245 234 227 210 220 208 197 190 202 212 220 228 226 231 215 218 219 224 225 227 227 229 218 234 236 240 243 249 252 254 255
296 282 263 246 246 245 235 229 221 213 221 231 240 218 230 229 223 187 178 196 195 189 206 205 208 217 215 220 217 223 228 231 232 232 231 235 234 242 243 249 254 256 256 257 257
297 277 254 253 246 248 237 221 216 196 186 228 234 221 225 229 239 197 187 200 206 209 208 210 207 212 216 214 219 226 224 227 232 234 235 235 240 247 253 257 261 263 264 267 267